contact:dominique.lefevre@mio.osupytheas.fr, maurice.libes@osupytheas.fr, didier.mallarino@osupytheas.fr
Project:EMSO http://www.emso-fr.org/EMSO-France
Depth: 2436.0 m
Title:EMSO Ligure Ouest : Data MII capteur AQUADOPP
Date,Latitude,Longitude,X_East,Y_North,Z_Up,Amplitude_X,Amplitude_Y,Amplitude_Z,Batterie,SoundSpeed,Heading,Pitch,Roll,Pressure,TIS,Speed,Direction
, degrees North, degrees East, m.s-1, m.s-1,m.s-1, 1, 1, 1, Volt, m.s-1, degree, degree, degree, dbar, degree_C, m.s-1, degree
2021-04-15T00:04:03,42.805,6.029,-0.008,-0.049,0.001,106.0,105.0,103.0,13.4,1505.2,327.7,-0.7,1.8,2469.463,13.28,0.049,189.3
2021-04-15T00:07:03,42.805,6.029,-0.038,-0.037,0.009,106.0,106.0,103.0,13.4,1505.2,326.0,-0.8,1.8,2469.485,13.28,0.053,225.8
2021-04-15T00:10:03,42.805,6.029,-0.016,-0.057,-0.045,108.0,104.0,102.0,13.4,1505.2,323.7,-0.7,1.8,2469.469,13.28,0.059,195.7
2021-04-15T00:13:03,42.805,6.029,-0.025,-0.058,-0.018,106.0,105.0,103.0,13.4,1505.2,325.2,-0.8,1.8,2469.458,13.28,0.063,203.3
2021-04-15T00:16:03,42.805,6.029,-0.047,-0.053,-0.014,107.0,105.0,103.0,13.3,1505.2,327.8,-0.8,1.8,2469.388,13.28,0.07,221.6
2021-04-15T00:19:03,42.805,6.029,-0.032,-0.03,0.006,106.0,104.0,103.0,13.4,1505.2,326.7,-0.8,1.9,2469.406,13.28,0.043,226.9
2021-04-15T00:22:03,42.805,6.029,0.001,-0.055,-0.013,106.0,106.0,102.0,13.4,1505.2,326.3,-0.7,1.8,2469.368,13.28,0.055,179.0
2021-04-15T00:25:03,42.805,6.029,-0.022,-0.052,-0.015,106.0,105.0,104.0,13.4,1505.2,327.3,-0.8,1.9,2469.329,13.28,0.056,202.9
2021-04-15T00:28:03,42.805,6.029,-0.008,-0.052,-0.058,107.0,106.0,104.0,13.4,1505.2,326.3,-0.7,1.8,2469.263,13.28,0.052,188.7
2021-04-15T00:31:03,42.805,6.029,-0.036,-0.06,-0.022,107.0,105.0,104.0,13.3,1505.2,323.9,-0.7,1.8,2469.26,13.28,0.069,211.0
2021-04-15T00:34:03,42.805,6.029,-0.036,-0.055,0.0,107.0,106.0,103.0,13.4,1505.2,326.1,-0.7,1.8,2469.257,13.28,0.065,213.2
2021-04-15T00:37:03,42.805,6.029,-0.048,-0.054,-0.019,107.0,106.0,103.0,13.4,1505.2,324.2,-0.7,1.8,2469.261,13.28,0.072,221.6
2021-04-15T00:40:03,42.805,6.029,-0.027,-0.058,-0.023,106.0,106.0,104.0,13.4,1505.2,324.7,-0.7,1.8,2469.231,13.28,0.063,205.0
2021-04-15T00:43:03,42.805,6.029,-0.038,-0.04,-0.004,106.0,105.0,105.0,13.3,1505.2,328.1,-0.8,1.8,2469.208,13.28,0.055,223.5
2021-04-15T00:46:03,42.805,6.029,-0.031,-0.056,-0.001,107.0,106.0,103.0,13.4,1505.2,325.3,-0.7,1.8,2469.193,13.28,0.064,209.0
2021-04-15T00:49:03,42.805,6.029,-0.052,-0.037,0.007,106.0,105.0,103.0,13.4,1505.2,326.6,-0.8,1.8,2469.16,13.28,0.063,234.6
2021-04-15T00:52:03,42.805,6.029,-0.032,-0.066,0.008,106.0,105.0,103.0,13.4,1505.2,324.4,-0.8,1.8,2469.104,13.28,0.073,205.9
2021-04-15T00:55:03,42.805,6.029,-0.018,-0.055,-0.025,107.0,106.0,104.0,13.4,1505.2,328.4,-0.8,1.8,2469.094,13.28,0.057,198.1
2021-04-15T00:58:03,42.805,6.029,-0.022,-0.048,0.005,107.0,107.0,103.0,13.4,1505.2,325.1,-0.8,1.8,2469.06,13.28,0.052,204.6
2021-04-15T01:04:03,42.805,6.029,-0.025,-0.067,-0.024,107.0,105.0,103.0,13.4,1505.2,324.8,-0.8,1.8,2469.05,13.28,0.071,200.5
2021-04-15T01:07:03,42.805,6.029,-0.051,-0.043,-0.003,105.0,106.0,103.0,13.3,1505.2,327.8,-0.8,1.8,2469.035,13.28,0.066,229.9
2021-04-15T01:10:03,42.805,6.029,-0.038,-0.05,-0.022,106.0,106.0,103.0,13.4,1505.2,325.4,-0.7,1.8,2469.015,13.28,0.062,217.2
2021-04-15T01:13:03,42.805,6.029,-0.042,-0.05,-0.032,106.0,105.0,103.0,13.4,1505.2,327.4,-0.7,1.8,2468.978,13.28,0.065,220.0
2021-04-15T01:16:03,42.805,6.029,-0.023,-0.065,-0.032,105.0,105.0,102.0,13.4,1505.2,326.0,-0.7,1.8,2468.972,13.28,0.068,199.5
2021-04-15T01:19:03,42.805,6.029,-0.035,-0.072,-0.006,106.0,105.0,102.0,13.3,1505.2,323.8,-0.8,1.8,2468.943,13.28,0.08,205.9
2021-04-15T01:22:03,42.805,6.029,-0.027,-0.065,-0.003,106.0,106.0,103.0,13.4,1505.2,325.6,-0.8,1.8,2468.929,13.28,0.07,202.6
2021-04-15T01:25:03,42.805,6.029,-0.008,-0.059,-0.002,106.0,104.0,103.0,13.3,1505.2,324.4,-0.7,1.8,2468.919,13.28,0.059,187.7
2021-04-15T01:28:03,42.805,6.029,-0.035,-0.057,-0.01,106.0,107.0,102.0,13.3,1505.2,326.8,-0.7,1.8,2468.877,13.28,0.066,211.6
2021-04-15T01:31:03,42.805,6.029,-0.045,-0.055,-0.001,106.0,104.0,103.0,13.4,1505.2,326.6,-0.8,1.8,2468.864,13.28,0.071,219.3
2021-04-15T01:34:03,42.805,6.029,-0.012,-0.042,-0.009,107.0,106.0,102.0,13.4,1505.2,325.8,-0.8,1.8,2468.844,13.28,0.043,195.9
2021-04-15T01:37:03,42.805,6.029,-0.03,-0.063,-0.004,106.0,107.0,103.0,13.3,1505.2,325.4,-0.7,1.8,2468.86,13.28,0.069,205.5
2021-04-15T01:40:03,42.805,6.029,-0.024,-0.05,-0.008,105.0,107.0,103.0,13.4,1505.2,324.2,-0.8,1.8,2468.852,13.28,0.055,205.6
2021-04-15T01:43:03,42.805,6.029,-0.044,-0.05,-0.031,105.0,104.0,103.0,13.4,1505.2,327.6,-0.7,1.8,2468.825,13.28,0.066,221.3
2021-04-15T01:46:03,42.805,6.029,-0.053,-0.058,-0.037,106.0,105.0,103.0,13.4,1505.2,329.0,-0.7,1.8,2468.776,13.28,0.078,222.4
2021-04-15T01:49:03,42.805,6.029,-0.046,-0.065,-0.036,107.0,105.0,101.0,13.3,1505.2,326.5,-0.7,1.8,2468.792,13.28,0.079,215.3
2021-04-15T01:52:03,42.805,6.029,-0.064,-0.069,-0.006,106.0,105.0,103.0,13.3,1505.2,325.9,-0.7,1.8,2468.774,13.28,0.094,222.8
2021-04-15T01:55:03,42.805,6.029,-0.037,-0.062,-0.046,105.0,105.0,103.0,13.3,1505.2,324.1,-0.7,1.8,2468.74,13.28,0.072,210.8
2021-04-15T01:58:03,42.805,6.029,-0.039,-0.054,-0.047,106.0,106.0,103.0,13.3,1505.2,326.9,-0.8,1.8,2468.768,13.28,0.066,215.8
2021-04-15T02:04:03,42.805,6.029,-0.017,-0.049,-0.029,105.0,105.0,102.0,13.4,1505.2,326.1,-0.8,1.8,2468.745,13.28,0.051,199.1
2021-04-15T02:07:02,42.805,6.029,-0.026,-0.07,-0.019,107.0,105.0,103.0,13.4,1505.2,326.2,-0.7,1.8,2468.71,13.28,0.074,200.4
2021-04-15T02:10:03,42.805,6.029,-0.037,-0.049,-0.01,105.0,106.0,103.0,13.4,1505.2,325.5,-0.7,1.8,2468.69,13.28,0.061,217.1
2021-04-15T02:13:03,42.805,6.029,-0.026,-0.069,-0.027,106.0,106.0,103.0,13.3,1505.2,327.5,-0.7,1.9,2468.658,13.28,0.073,200.6
2021-04-15T02:16:03,42.805,6.029,-0.042,-0.071,-0.029,106.0,105.0,104.0,13.4,1505.2,325.2,-0.8,1.8,2468.682,13.28,0.082,210.6
2021-04-15T02:19:03,42.805,6.029,-0.051,-0.067,-0.032,107.0,106.0,102.0,13.3,1505.2,325.6,-0.8,1.8,2468.677,13.28,0.084,217.3
2021-04-15T02:22:02,42.805,6.029,-0.029,-0.065,-0.029,107.0,105.0,103.0,13.4,1505.2,328.5,-0.8,1.8,2468.668,13.28,0.071,204.0
2021-04-15T02:25:03,42.805,6.029,-0.036,-0.055,-0.015,106.0,105.0,103.0,13.4,1505.2,325.8,-0.7,1.8,2468.621,13.28,0.065,213.2
2021-04-15T02:28:03,42.805,6.029,-0.043,-0.061,-0.019,107.0,107.0,102.0,13.3,1505.2,324.1,-0.7,1.8,2468.631,13.28,0.074,215.2
2021-04-15T02:31:02,42.805,6.029,-0.037,-0.053,0.008,107.0,105.0,103.0,13.3,1505.2,328.6,-0.7,1.8,2468.587,13.28,0.064,214.9
2021-04-15T02:34:02,42.805,6.029,-0.029,-0.069,-0.054,106.0,105.0,104.0,13.4,1505.2,326.4,-0.8,1.9,2468.586,13.28,0.074,202.8
2021-04-15T02:37:02,42.805,6.029,-0.036,-0.048,-0.007,106.0,106.0,103.0,13.3,1505.2,323.8,-0.8,1.8,2468.582,13.28,0.06,216.9
2021-04-15T02:40:02,42.805,6.029,-0.043,-0.089,-0.002,106.0,105.0,103.0,13.4,1505.2,327.6,-0.7,1.8,2468.538,13.28,0.098,205.8
2021-04-15T02:43:03,42.805,6.029,-0.037,-0.059,-0.015,105.0,106.0,102.0,13.3,1505.2,323.8,-0.8,1.8,2468.562,13.28,0.069,212.1
2021-04-15T02:46:02,42.805,6.029,-0.017,-0.058,-0.019,106.0,105.0,102.0,13.4,1505.2,324.2,-0.7,1.8,2468.524,13.28,0.06,196.3
2021-04-15T02:49:02,42.805,6.029,-0.031,-0.051,-0.04,104.0,106.0,103.0,13.3,1505.2,328.3,-0.8,1.8,2468.573,13.28,0.059,211.3
2021-04-15T02:52:02,42.805,6.029,-0.036,-0.037,-0.024,105.0,105.0,103.0,13.4,1505.2,325.7,-0.7,1.8,2468.507,13.28,0.051,224.2
2021-04-15T02:55:02,42.805,6.029,-0.02,-0.079,-0.022,105.0,106.0,104.0,13.4,1505.2,323.5,-0.8,1.8,2468.495,13.28,0.081,194.2
2021-04-15T02:58:02,42.805,6.029,-0.024,-0.042,-0.002,105.0,105.0,102.0,13.4,1505.2,327.9,-0.8,1.8,2468.478,13.28,0.048,209.7
2021-04-15T03:04:02,42.805,6.029,-0.032,-0.06,-0.009,106.0,107.0,104.0,13.4,1505.2,327.7,-0.7,1.8,2468.479,13.28,0.067,208.1
2021-04-15T03:07:02,42.805,6.029,-0.033,-0.08,-0.007,106.0,106.0,104.0,13.3,1505.2,324.2,-0.7,1.8,2468.447,13.28,0.086,202.4
2021-04-15T03:10:03,42.805,6.029,-0.049,-0.054,-0.025,105.0,104.0,103.0,13.3,1505.2,328.8,-0.8,1.8,2468.375,13.28,0.072,222.2
2021-04-15T03:13:03,42.805,6.029,-0.017,-0.07,0.0,104.0,106.0,102.0,13.4,1505.2,328.4,-0.8,1.9,2468.438,13.28,0.072,193.7
2021-04-15T03:16:03,42.805,6.029,-0.04,-0.077,-0.032,106.0,105.0,102.0,13.4,1505.2,325.2,-0.8,1.8,2468.384,13.28,0.086,207.4
2021-04-15T03:19:02,42.805,6.029,-0.04,-0.064,-0.022,106.0,105.0,103.0,13.4,1505.2,326.6,-0.8,1.8,2468.329,13.28,0.075,212.0
2021-04-15T03:22:02,42.805,6.029,-0.026,-0.064,-0.007,106.0,107.0,103.0,13.4,1505.2,327.7,-0.8,1.8,2468.358,13.28,0.069,202.1
2021-04-15T03:25:03,42.805,6.029,-0.027,-0.055,-0.031,109.0,105.0,105.0,13.4,1505.2,327.5,-0.8,1.8,2468.342,13.28,0.061,206.1
2021-04-15T03:28:02,42.805,6.029,-0.029,-0.048,-0.004,106.0,106.0,103.0,13.4,1505.2,325.0,-0.7,1.8,2468.299,13.28,0.056,211.1
2021-04-15T03:31:03,42.805,6.029,-0.036,-0.071,-0.02,106.0,106.0,103.0,13.4,1505.2,324.9,-0.7,1.8,2468.304,13.28,0.079,206.9
2021-04-15T03:34:03,42.805,6.029,-0.048,-0.073,-0.016,106.0,104.0,102.0,13.4,1505.2,324.8,-0.8,1.8,2468.252,13.28,0.087,213.3
2021-04-15T03:37:02,42.805,6.029,-0.055,-0.085,-0.06,106.0,106.0,102.0,13.4,1505.2,325.0,-0.7,1.8,2468.25,13.28,0.101,212.9
2021-04-15T03:40:03,42.805,6.029,-0.058,-0.078,-0.015,105.0,105.0,103.0,13.4,1505.2,323.2,-0.8,1.8,2468.249,13.28,0.097,216.6
2021-04-15T03:43:03,42.805,6.029,-0.029,-0.064,-0.001,106.0,105.0,103.0,13.3,1505.2,325.1,-0.7,1.8,2468.216,13.28,0.07,204.4
2021-04-15T03:46:03,42.805,6.029,-0.045,-0.063,-0.051,106.0,105.0,104.0,13.3,1505.2,327.5,-0.7,1.9,2468.198,13.28,0.077,215.5
2021-04-15T03:49:03,42.805,6.029,-0.045,-0.053,-0.023,106.0,105.0,104.0,13.4,1505.2,327.7,-0.8,1.9,2468.157,13.28,0.069,220.3
2021-04-15T03:52:02,42.805,6.029,-0.032,-0.043,-0.031,105.0,105.0,103.0,13.3,1505.2,327.4,-0.7,1.8,2468.177,13.28,0.053,216.7
2021-04-15T03:55:03,42.805,6.029,-0.022,-0.057,-0.03,105.0,104.0,104.0,13.4,1505.2,324.0,-0.7,1.8,2468.17,13.28,0.061,201.1
2021-04-15T03:58:03,42.805,6.029,-0.037,-0.073,-0.02,106.0,106.0,103.0,13.4,1505.2,326.0,-0.7,1.8,2468.125,13.28,0.081,206.9
2021-04-15T04:04:02,42.805,6.029,-0.018,-0.052,0.004,106.0,104.0,103.0,13.4,1505.2,324.9,-0.7,1.8,2468.087,13.28,0.055,199.1
2021-04-15T04:07:02,42.805,6.029,-0.043,-0.057,-0.005,107.0,105.0,102.0,13.4,1505.2,327.2,-0.8,1.8,2468.08,13.28,0.071,217.0
2021-04-15T04:10:03,42.805,6.029,-0.034,-0.055,-0.032,105.0,105.0,104.0,13.3,1505.2,325.1,-0.8,1.8,2468.057,13.28,0.064,211.7
2021-04-15T04:13:03,42.805,6.029,-0.035,-0.047,-0.02,105.0,105.0,102.0,13.3,1505.2,326.9,-0.7,1.8,2468.012,13.28,0.058,216.7
2021-04-15T04:16:03,42.805,6.029,-0.022,-0.055,-0.032,106.0,106.0,103.0,13.4,1505.2,324.5,-0.8,1.8,2467.988,13.28,0.059,201.8
2021-04-15T04:19:03,42.805,6.029,-0.029,-0.053,-0.036,105.0,106.0,103.0,13.4,1505.2,328.8,-0.7,1.8,2468.001,13.28,0.06,208.7
2021-04-15T04:22:02,42.805,6.029,-0.04,-0.056,0.002,105.0,106.0,103.0,13.3,1505.2,327.2,-0.7,1.8,2467.963,13.28,0.068,215.5
2021-04-15T04:25:03,42.805,6.029,-0.031,-0.063,-0.07,106.0,105.0,103.0,13.3,1505.2,327.6,-0.8,1.8,2467.929,13.28,0.07,206.2
2021-04-15T04:28:03,42.805,6.029,-0.02,-0.055,-0.019,105.0,105.0,103.0,13.4,1505.2,323.4,-0.7,1.8,2467.95,13.28,0.058,200.0
2021-04-15T04:31:03,42.805,6.029,-0.024,-0.066,-0.039,106.0,105.0,102.0,13.4,1505.2,325.5,-0.7,1.9,2467.951,13.28,0.07,200.0
2021-04-15T04:34:03,42.805,6.029,-0.033,-0.076,-0.006,106.0,105.0,103.0,13.4,1505.2,324.9,-0.7,1.8,2467.899,13.28,0.082,203.5
2021-04-15T04:37:02,42.805,6.029,-0.031,-0.063,-0.035,106.0,106.0,103.0,13.4,1505.2,327.0,-0.8,1.8,2467.88,13.28,0.07,206.2
2021-04-15T04:40:03,42.805,6.029,-0.05,-0.047,0.02,106.0,104.0,102.0,13.4,1505.2,323.6,-0.8,1.8,2467.859,13.28,0.068,226.8
2021-04-15T04:43:03,42.805,6.029,-0.037,-0.061,-0.035,106.0,105.0,103.0,13.3,1505.2,326.5,-0.8,1.8,2467.851,13.28,0.071,211.2
2021-04-15T04:46:03,42.805,6.029,-0.033,-0.069,-0.03,105.0,105.0,103.0,13.4,1505.2,323.3,-0.7,1.8,2467.802,13.28,0.076,205.6
2021-04-15T04:49:03,42.805,6.029,-0.035,-0.054,0.0,106.0,105.0,104.0,13.3,1505.2,328.6,-0.8,1.8,2467.883,13.28,0.064,213.0
2021-04-15T04:52:02,42.805,6.029,-0.031,-0.053,-0.055,106.0,104.0,103.0,13.3,1505.2,326.6,-0.8,1.8,2467.854,13.28,0.061,210.3
2021-04-15T04:55:03,42.805,6.029,-0.031,-0.06,0.009,105.0,105.0,103.0,13.3,1505.2,324.8,-0.8,1.8,2467.93,13.28,0.067,207.3
2021-04-15T04:58:03,42.805,6.029,-0.027,-0.059,-0.037,106.0,105.0,103.0,13.4,1505.2,324.0,-0.8,1.8,2467.967,13.28,0.064,204.6
2021-04-15T05:04:02,42.805,6.029,-0.035,-0.067,-0.015,105.0,105.0,104.0,13.4,1505.2,327.4,-0.8,1.8,2468.02,13.28,0.075,207.6
2021-04-15T05:07:02,42.805,6.029,-0.023,-0.057,-0.032,105.0,106.0,104.0,13.4,1505.2,325.1,-0.7,1.8,2468.073,13.28,0.061,202.0
2021-04-15T05:10:03,42.805,6.029,-0.036,-0.043,-0.019,105.0,104.0,103.0,13.4,1505.2,328.7,-0.7,1.8,2468.133,13.28,0.056,219.9
2021-04-15T05:13:03,42.805,6.029,-0.059,-0.064,-0.015,106.0,104.0,103.0,13.4,1505.2,325.8,-0.8,1.9,2467.943,13.28,0.087,222.7
2021-04-15T05:16:03,42.805,6.029,-0.048,-0.065,-0.023,106.0,105.0,102.0,13.3,1505.2,323.6,-0.8,1.8,2467.961,13.28,0.08,216.4
2021-04-15T05:19:03,42.805,6.029,-0.042,-0.076,-0.049,105.0,105.0,103.0,13.4,1505.2,328.4,-0.8,1.8,2467.849,13.28,0.086,208.9
2021-04-15T05:22:02,42.805,6.029,-0.038,-0.052,-0.029,105.0,105.0,103.0,13.4,1505.2,325.4,-0.8,1.8,2467.887,13.28,0.064,216.2
2021-04-15T05:25:03,42.805,6.029,-0.029,-0.06,-0.019,107.0,105.0,103.0,13.4,1505.2,327.0,-0.8,1.8,2467.754,13.28,0.066,205.8
2021-04-15T05:28:03,42.805,6.029,-0.031,-0.053,-0.015,106.0,105.0,102.0,13.3,1505.2,324.3,-0.8,1.8,2467.549,13.28,0.061,210.3
2021-04-15T05:31:03,42.805,6.029,-0.034,-0.059,-0.019,106.0,105.0,103.0,13.4,1505.2,326.4,-0.7,1.8,2467.725,13.28,0.068,210.0
2021-04-15T05:34:03,42.805,6.029,-0.02,-0.052,-0.015,106.0,104.0,104.0,13.3,1505.2,326.7,-0.7,1.8,2467.956,13.28,0.055,201.0
2021-04-15T05:37:02,42.805,6.029,-0.041,-0.072,-0.03,106.0,106.0,103.0,13.4,1505.2,327.9,-0.7,1.8,2467.961,13.28,0.082,209.7
2021-04-15T05:40:03,42.805,6.029,-0.05,-0.06,-0.002,106.0,105.0,102.0,13.4,1505.2,326.9,-0.8,1.8,2467.859,13.28,0.078,219.8
2021-04-15T05:43:03,42.805,6.029,-0.028,-0.057,-0.018,106.0,106.0,103.0,13.4,1505.2,323.7,-0.7,1.8,2467.919,13.28,0.063,206.2
2021-04-15T05:46:03,42.805,6.029,-0.04,-0.052,-0.005,106.0,106.0,102.0,13.4,1505.2,329.2,-0.7,1.8,2468.154,13.28,0.065,217.6
2021-04-15T05:49:03,42.805,6.029,-0.049,-0.054,-0.033,107.0,105.0,103.0,13.3,1505.2,327.3,-0.8,1.8,2467.981,13.28,0.072,222.2
2021-04-15T05:52:02,42.805,6.029,-0.069,-0.052,-0.044,105.0,105.0,103.0,13.3,1505.2,325.8,-0.7,1.8,2467.219,13.28,0.086,233.0
2021-04-15T05:55:03,42.805,6.029,-0.055,-0.063,-0.025,106.0,105.0,103.0,13.3,1505.2,326.2,-0.7,1.8,2467.384,13.28,0.083,221.1
2021-04-15T05:58:03,42.805,6.029,-0.047,-0.057,-0.025,105.0,105.0,102.0,13.4,1505.2,328.1,-0.7,1.8,2467.856,13.28,0.073,219.5
2021-04-15T06:04:02,42.805,6.029,-0.047,-0.06,0.006,105.0,105.0,102.0,13.4,1505.2,323.8,-0.8,1.8,2468.061,13.28,0.076,218.1
2021-04-15T06:07:03,42.805,6.029,-0.024,-0.067,-0.005,106.0,106.0,103.0,13.4,1505.2,324.9,-0.7,1.8,2468.129,13.28,0.071,199.7
2021-04-15T06:10:03,42.805,6.029,-0.038,-0.061,-0.01,106.0,107.0,104.0,13.4,1505.2,328.5,-0.8,1.9,2468.131,13.28,0.071,211.9
2021-04-15T06:13:03,42.805,6.029,-0.037,-0.044,-0.008,107.0,105.0,104.0,13.4,1505.2,326.8,-0.8,1.8,2468.09,13.28,0.057,220.1
2021-04-15T06:16:03,42.805,6.029,-0.044,-0.053,0.003,106.0,105.0,103.0,13.4,1505.2,326.4,-0.8,1.9,2468.047,13.28,0.068,219.7
2021-04-15T06:19:03,42.805,6.029,-0.036,-0.044,-0.017,106.0,105.0,104.0,13.4,1505.2,326.7,-0.7,1.8,2468.108,13.28,0.056,219.3
2021-04-15T06:22:02,42.805,6.029,-0.035,-0.048,-0.021,107.0,105.0,103.0,13.4,1505.2,326.0,-0.8,1.8,2468.056,13.28,0.059,216.1
2021-04-15T06:25:03,42.805,6.029,-0.048,-0.057,-0.009,106.0,105.0,103.0,13.4,1505.2,327.9,-0.8,1.8,2467.995,13.28,0.074,220.1
2021-04-15T06:28:03,42.805,6.029,-0.036,-0.056,0.014,104.0,105.0,103.0,13.3,1505.2,324.1,-0.8,1.8,2467.955,13.28,0.066,212.7
2021-04-15T06:31:03,42.805,6.029,-0.051,-0.068,-0.042,107.0,105.0,104.0,13.4,1505.2,326.1,-0.7,1.8,2467.937,13.28,0.084,216.9
2021-04-15T06:34:03,42.805,6.029,-0.025,-0.059,-0.01,106.0,105.0,103.0,13.4,1505.2,325.6,-0.7,1.9,2467.879,13.28,0.064,203.0
2021-04-15T06:37:02,42.805,6.029,-0.046,-0.06,-0.006,106.0,105.0,104.0,13.3,1505.2,327.3,-0.8,1.8,2467.757,13.28,0.075,217.5
2021-04-15T06:40:03,42.805,6.029,-0.046,-0.036,-0.014,105.0,107.0,104.0,13.4,1505.2,326.7,-0.8,1.8,2467.438,13.28,0.058,232.0
2021-04-15T06:43:03,42.805,6.029,-0.028,-0.058,-0.035,107.0,107.0,103.0,13.4,1505.2,326.0,-0.8,1.8,2467.268,13.28,0.064,205.8
2021-04-15T06:46:03,42.805,6.029,-0.041,-0.04,-0.02,106.0,105.0,103.0,13.4,1505.2,327.5,-0.8,1.8,2467.328,13.28,0.057,225.7
2021-04-15T06:49:03,42.805,6.029,-0.035,-0.059,-0.008,106.0,104.0,103.0,13.3,1505.2,328.7,-0.7,1.8,2467.356,13.28,0.068,210.7
2021-04-15T06:52:02,42.805,6.029,-0.048,-0.058,-0.015,107.0,104.0,103.0,13.4,1505.2,326.5,-0.8,1.9,2466.877,13.28,0.075,219.6
2021-04-15T06:55:03,42.805,6.029,-0.06,-0.057,-0.032,106.0,105.0,104.0,13.4,1505.2,328.4,-0.7,1.8,2467.221,13.28,0.082,226.5
2021-04-15T06:58:03,42.805,6.029,-0.027,-0.05,-0.013,105.0,105.0,103.0,13.4,1505.2,326.3,-0.8,1.8,2467.272,13.28,0.056,208.4
2021-04-15T07:04:02,42.805,6.029,-0.035,-0.068,-0.028,106.0,105.0,102.0,13.4,1505.2,327.0,-0.8,1.8,2467.305,13.28,0.076,207.2
2021-04-15T07:07:03,42.805,6.029,-0.032,-0.035,-0.027,107.0,105.0,103.0,13.4,1505.2,326.2,-0.8,1.8,2467.215,13.28,0.047,222.4
2021-04-15T07:10:03,42.805,6.029,-0.021,-0.07,-0.025,105.0,106.0,104.0,13.4,1505.2,326.8,-0.8,1.9,2467.209,13.28,0.073,196.7
2021-04-15T07:13:03,42.805,6.029,-0.033,-0.08,-0.048,106.0,105.0,102.0,13.4,1505.2,327.1,-0.8,1.8,2467.173,13.28,0.086,202.4
2021-04-15T07:16:03,42.805,6.029,-0.038,-0.062,-0.047,105.0,105.0,103.0,13.4,1505.2,326.3,-0.7,1.8,2467.145,13.28,0.072,211.5
2021-04-15T07:19:03,42.805,6.029,-0.047,-0.052,-0.022,105.0,105.0,104.0,13.3,1505.2,325.6,-0.7,1.8,2467.141,13.28,0.07,222.1
2021-04-15T07:22:03,42.805,6.029,-0.03,-0.065,-0.04,106.0,105.0,103.0,13.4,1505.2,325.0,-0.8,1.8,2467.128,13.28,0.071,204.8
2021-04-15T07:25:03,42.805,6.029,-0.022,-0.056,-0.042,105.0,106.0,102.0,13.4,1505.2,326.8,-0.8,1.9,2467.028,13.28,0.06,201.4
2021-04-15T07:28:03,42.805,6.029,-0.029,-0.062,-0.032,105.0,106.0,104.0,13.3,1505.2,323.8,-0.8,1.8,2467.093,13.28,0.068,205.1
2021-04-15T07:31:03,42.805,6.029,-0.04,-0.05,-0.021,106.0,105.0,103.0,13.3,1505.2,328.3,-0.8,1.8,2467.14,13.28,0.064,218.7
2021-04-15T07:34:03,42.805,6.029,-0.031,-0.055,-0.027,106.0,105.0,103.0,13.3,1505.2,326.1,-0.7,1.8,2467.144,13.28,0.063,209.4
2021-04-15T07:37:03,42.805,6.029,-0.031,-0.069,-0.03,106.0,105.0,103.0,13.3,1505.2,324.0,-0.8,1.8,2467.085,13.28,0.075,204.2
2021-04-15T07:40:03,42.805,6.029,-0.048,-0.067,-0.015,105.0,105.0,103.0,13.4,1505.2,325.6,-0.7,1.8,2466.983,13.28,0.082,215.6
2021-04-15T07:43:03,42.805,6.029,-0.048,-0.052,-0.033,106.0,105.0,103.0,13.4,1505.2,326.7,-0.8,1.8,2466.969,13.28,0.07,222.7
2021-04-15T07:46:03,42.805,6.029,-0.044,-0.043,-0.011,107.0,106.0,104.0,13.4,1505.2,326.3,-0.7,1.8,2466.901,13.28,0.061,225.7
2021-04-15T07:49:03,42.805,6.029,-0.039,-0.077,-0.02,107.0,105.0,104.0,13.4,1505.2,325.2,-0.7,1.8,2466.732,13.28,0.086,206.9
2021-04-15T07:52:03,42.805,6.029,-0.012,-0.064,-0.011,106.0,106.0,103.0,13.3,1505.2,327.3,-0.7,1.8,2466.559,13.28,0.065,190.6
2021-04-15T07:55:03,42.805,6.029,-0.022,-0.054,-0.024,107.0,106.0,103.0,13.3,1505.2,325.4,-0.8,1.8,2466.498,13.28,0.058,202.2
2021-04-15T07:58:03,42.805,6.029,-0.033,-0.059,-0.044,106.0,105.0,103.0,13.3,1505.2,326.9,-0.8,1.8,2466.462,13.28,0.067,209.2
2021-04-15T08:04:02,42.805,6.029,-0.034,-0.058,-0.031,106.0,105.0,103.0,13.3,1505.2,326.4,-0.7,1.8,2466.535,13.28,0.067,210.4
2021-04-15T08:07:03,42.805,6.029,-0.04,-0.061,-0.037,106.0,106.0,103.0,13.3,1505.2,328.4,-0.7,1.8,2466.559,13.28,0.072,213.3
2021-04-15T08:10:03,42.805,6.029,-0.054,-0.043,-0.024,106.0,105.0,102.0,13.3,1505.2,325.2,-0.8,1.8,2466.584,13.28,0.069,231.5
2021-04-15T08:13:03,42.805,6.029,-0.041,-0.074,0.002,106.0,105.0,104.0,13.3,1505.2,327.1,-0.7,1.8,2466.564,13.28,0.084,209.0
2021-04-15T08:16:03,42.805,6.029,-0.031,-0.061,0.002,106.0,106.0,104.0,13.3,1505.2,325.9,-0.7,1.8,2466.65,13.28,0.068,206.9
2021-04-15T08:19:03,42.805,6.029,-0.022,-0.048,0.006,106.0,105.0,102.0,13.4,1505.2,323.4,-0.7,1.8,2466.624,13.28,0.052,204.6
2021-04-15T08:22:03,42.805,6.029,-0.034,-0.071,0.006,106.0,105.0,104.0,13.3,1505.2,324.2,-0.7,1.8,2466.668,13.28,0.078,205.6
2021-04-15T08:25:03,42.805,6.029,-0.069,-0.061,-0.036,106.0,105.0,104.0,13.4,1505.2,328.0,-0.8,1.8,2466.705,13.28,0.092,228.5
2021-04-15T08:28:03,42.805,6.029,-0.042,-0.05,0.005,106.0,105.0,103.0,13.3,1505.2,325.6,-0.7,1.8,2466.734,13.28,0.065,220.0
2021-04-15T08:31:03,42.805,6.029,-0.041,-0.063,-0.006,106.0,105.0,103.0,13.4,1505.2,325.2,-0.7,1.8,2466.736,13.28,0.075,213.1
2021-04-15T08:34:03,42.805,6.029,-0.046,-0.061,-0.017,107.0,104.0,103.0,13.3,1505.2,328.6,-0.7,1.8,2466.799,13.28,0.076,217.0
2021-04-15T08:37:03,42.805,6.029,-0.042,-0.062,-0.042,106.0,105.0,104.0,13.4,1505.2,327.1,-0.8,1.8,2466.823,13.28,0.074,214.1
2021-04-15T08:40:03,42.805,6.029,-0.025,-0.077,-0.011,107.0,106.0,104.0,13.4,1505.2,324.5,-0.7,1.8,2466.89,13.28,0.08,198.0
2021-04-15T08:43:03,42.805,6.029,-0.023,-0.059,-0.011,106.0,105.0,103.0,13.4,1505.2,328.1,-0.7,1.8,2466.843,13.28,0.063,201.3
2021-04-15T08:46:03,42.805,6.029,-0.031,-0.049,-0.013,106.0,105.0,103.0,13.4,1505.2,327.1,-0.7,1.8,2466.916,13.28,0.057,212.3
2021-04-15T08:49:03,42.805,6.029,-0.021,-0.036,-0.017,105.0,106.0,104.0,13.4,1505.2,323.2,-0.7,1.8,2467.008,13.28,0.041,210.3
2021-04-15T08:52:03,42.805,6.029,-0.042,-0.037,-0.029,105.0,105.0,104.0,13.4,1505.2,326.4,-0.7,1.8,2466.92,13.28,0.055,228.6
2021-04-15T08:55:03,42.805,6.029,-0.032,-0.054,-0.016,106.0,105.0,104.0,13.4,1505.2,324.1,-0.8,1.8,2466.863,13.28,0.062,210.7
2021-04-15T08:58:03,42.805,6.029,-0.036,-0.061,0.001,106.0,106.0,103.0,13.4,1505.2,327.0,-0.8,1.9,2466.863,13.28,0.07,210.6
2021-04-15T09:04:02,42.805,6.029,-0.028,-0.062,-0.006,107.0,104.0,103.0,13.4,1505.2,326.5,-0.8,1.8,2466.908,13.28,0.068,204.3
2021-04-15T09:07:03,42.805,6.029,-0.034,-0.059,-0.008,106.0,105.0,103.0,13.3,1505.2,324.6,-0.8,1.8,2466.896,13.28,0.068,210.0
2021-04-15T09:10:03,42.805,6.029,-0.043,-0.04,-0.016,105.0,105.0,102.0,13.4,1505.2,325.4,-0.7,1.8,2466.92,13.28,0.058,227.1
2021-04-15T09:13:03,42.805,6.029,-0.038,-0.058,-0.009,106.0,105.0,103.0,13.3,1505.2,327.6,-0.8,1.8,2466.95,13.28,0.069,213.2
2021-04-15T09:16:03,42.805,6.029,-0.025,-0.073,-0.027,107.0,106.0,104.0,13.4,1505.2,324.2,-0.8,1.8,2466.997,13.28,0.077,198.9
2021-04-15T09:19:03,42.805,6.029,-0.059,-0.057,-0.003,106.0,105.0,103.0,13.4,1505.2,325.6,-0.8,1.9,2466.942,13.28,0.082,226.0
2021-04-15T09:22:03,42.805,6.029,-0.035,-0.058,-0.019,106.0,106.0,102.0,13.4,1505.2,327.2,-0.8,1.8,2466.977,13.28,0.067,211.1
2021-04-15T09:25:03,42.805,6.029,-0.026,-0.064,-0.033,105.0,105.0,103.0,13.4,1505.2,326.8,-0.8,1.8,2467.043,13.28,0.069,202.1
2021-04-15T09:28:03,42.805,6.029,-0.054,-0.048,-0.017,105.0,106.0,102.0,13.4,1505.2,325.2,-0.7,1.8,2467.012,13.28,0.072,228.4
2021-04-15T09:31:03,42.805,6.029,-0.07,-0.056,-0.047,106.0,106.0,104.0,13.4,1505.2,327.5,-0.8,1.8,2467.015,13.28,0.089,231.3
2021-04-15T09:34:03,42.805,6.029,-0.048,-0.057,-0.03,106.0,105.0,103.0,13.3,1505.2,326.4,-0.7,1.8,2467.08,13.28,0.074,220.1
2021-04-15T09:37:03,42.805,6.029,-0.035,-0.059,-0.015,106.0,105.0,104.0,13.4,1505.2,324.9,-0.7,1.9,2467.161,13.28,0.068,210.7
2021-04-15T09:40:03,42.805,6.029,-0.051,-0.052,-0.005,106.0,105.0,104.0,13.4,1505.2,325.2,-0.8,1.8,2467.168,13.28,0.072,224.5
2021-04-15T09:43:03,42.805,6.029,-0.034,-0.047,-0.013,106.0,106.0,102.0,13.4,1505.2,328.5,-0.8,1.8,2467.255,13.28,0.058,215.9
2021-04-15T09:46:03,42.805,6.029,-0.042,-0.039,-0.02,106.0,107.0,103.0,13.4,1505.2,327.5,-0.7,1.8,2467.203,13.28,0.057,227.1
2021-04-15T09:49:03,42.805,6.029,-0.052,-0.062,-0.029,105.0,106.0,102.0,13.3,1505.2,326.4,-0.8,1.8,2467.014,13.28,0.08,220.0